Location: Zagreb
(45.8000°N, 16.0000°E)
Time: 09:06:23
(UTC+02:00)

X-37B - Pass Details

Date: 01 July 2022
Orbit: 328 x 343 km, 45.0° (Epoch: 12 August)

Event Time Altitude Azimuth Distance (km) Brightness Sun altitude
Rises 22:55:47 0° 268° (W) 2,091 4.7 -15.6°
Reaches altitude 10° 22:57:46 10° 267° (W) 1,258 3.5 -15.8°
Maximum altitude 23:00:35 78° 182° (S) 344 0.1 -16.0°
Enters shadow 23:01:14 48° 105° (ESE) 442 0.5 -16.0°
